Year,Month,Day,Hour,Minute,Value (Times are PST for temperature in C)
2008,10,18,00,00,7.30
2008,10,18,00,01,7.30
2008,10,18,00,02,7.30
2008,10,18,00,03,7.30
2008,10,18,00,04,7.30
2008,10,18,00,05,7.30
2008,10,18,00,06,7.20
2008,10,18,00,07,7.20
2008,10,18,00,08,7.20
2008,10,18,00,09,7.20
2008,10,18,00,10,7.20
2008,10,18,00,11,7.20
2008,10,18,00,12,7.10
2008,10,18,00,13,7.10
2008,10,18,00,14,7.10
2008,10,18,00,15,7.10
2008,10,18,00,16,7.00
2008,10,18,00,17,7.00
2008,10,18,00,18,7.00
2008,10,18,00,19,7.00
2008,10,18,00,20,7.00
2008,10,18,00,21,7.00
2008,10,18,00,22,7.00
2008,10,18,00,23,7.00
2008,10,18,00,24,7.00
2008,10,18,00,25,6.90
2008,10,18,00,26,6.90
2008,10,18,00,27,6.90
2008,10,18,00,28,6.90
2008,10,18,00,29,6.90
2008,10,18,00,30,6.80
2008,10,18,00,31,6.80
2008,10,18,00,32,6.80
2008,10,18,00,33,6.80
2008,10,18,00,34,6.80
2008,10,18,00,35,6.80
2008,10,18,00,36,6.80
2008,10,18,00,37,6.80
2008,10,18,00,38,6.80
2008,10,18,00,39,6.80
2008,10,18,00,40,6.80
2008,10,18,00,41,6.80
2008,10,18,00,42,6.80
2008,10,18,00,43,6.80
2008,10,18,00,44,6.80
2008,10,18,00,45,6.80
2008,10,18,00,46,6.80
2008,10,18,00,47,6.70
2008,10,18,00,48,6.70
2008,10,18,00,49,6.70
2008,10,18,00,50,6.70
2008,10,18,00,51,6.70
2008,10,18,00,52,6.60
2008,10,18,00,53,6.60
2008,10,18,00,54,6.60
2008,10,18,00,55,6.50
2008,10,18,00,56,6.40
2008,10,18,00,57,6.40
2008,10,18,00,58,6.40
2008,10,18,00,59,6.40
2008,10,18,01,00,6.40
2008,10,18,01,01,6.40
2008,10,18,01,02,6.40
2008,10,18,01,03,6.40
2008,10,18,01,04,6.40
2008,10,18,01,05,6.40
2008,10,18,01,06,6.40
2008,10,18,01,07,6.40
2008,10,18,01,08,6.40
2008,10,18,01,09,6.40
2008,10,18,01,10,6.40
2008,10,18,01,11,6.40
2008,10,18,01,12,6.40
2008,10,18,01,13,6.40
2008,10,18,01,14,6.40
2008,10,18,01,15,6.40
2008,10,18,01,16,6.40
2008,10,18,01,17,6.40
2008,10,18,01,18,6.40
2008,10,18,01,19,6.40
2008,10,18,01,20,6.40
2008,10,18,01,21,6.40
2008,10,18,01,22,6.40
2008,10,18,01,23,6.40
2008,10,18,01,24,6.40
2008,10,18,01,25,6.40
2008,10,18,01,26,6.40
2008,10,18,01,27,6.40
2008,10,18,01,28,6.40
2008,10,18,01,29,6.40
2008,10,18,01,30,6.40
2008,10,18,01,31,6.40
2008,10,18,01,32,6.40
2008,10,18,01,33,6.40
2008,10,18,01,34,6.40
2008,10,18,01,35,6.40
2008,10,18,01,36,6.40
2008,10,18,01,37,6.30
2008,10,18,01,38,6.30
2008,10,18,01,39,6.30
2008,10,18,01,40,6.30
2008,10,18,01,41,6.30
2008,10,18,01,42,6.30
2008,10,18,01,43,6.30
2008,10,18,01,44,6.30
2008,10,18,01,45,6.30
2008,10,18,01,46,6.30
2008,10,18,01,47,6.20
2008,10,18,01,48,6.20
2008,10,18,01,49,6.20
2008,10,18,01,50,6.20
2008,10,18,01,51,6.20
2008,10,18,01,52,6.20
2008,10,18,01,53,6.10
2008,10,18,01,54,6.00
2008,10,18,01,55,5.90
2008,10,18,01,56,5.90
2008,10,18,01,57,5.80
2008,10,18,01,58,5.70
2008,10,18,01,59,5.70
2008,10,18,02,00,5.70
2008,10,18,02,01,5.70
2008,10,18,02,02,5.80
2008,10,18,02,03,5.80
2008,10,18,02,04,5.80
2008,10,18,02,05,5.90
2008,10,18,02,06,5.90
2008,10,18,02,07,5.90
2008,10,18,02,08,6.00
2008,10,18,02,09,6.00
2008,10,18,02,10,6.00
2008,10,18,02,11,6.10
2008,10,18,02,12,6.10
2008,10,18,02,13,6.10
2008,10,18,02,14,6.00
2008,10,18,02,15,5.90
2008,10,18,02,16,5.80
2008,10,18,02,17,5.60
2008,10,18,02,18,5.50
2008,10,18,02,19,5.40
2008,10,18,02,20,5.30
2008,10,18,02,21,5.30
2008,10,18,02,22,5.20
2008,10,18,02,23,5.20
2008,10,18,02,24,5.30
2008,10,18,02,25,5.30
2008,10,18,02,26,5.30
2008,10,18,02,27,5.30
2008,10,18,02,28,5.40
2008,10,18,02,29,5.40
2008,10,18,02,30,5.40
2008,10,18,02,31,5.40
2008,10,18,02,32,5.30
2008,10,18,02,33,5.30
2008,10,18,02,34,5.20
2008,10,18,02,35,5.20
2008,10,18,02,36,5.20
2008,10,18,02,37,5.10
2008,10,18,02,38,5.10
2008,10,18,02,39,5.10
2008,10,18,02,40,5.10
2008,10,18,02,41,5.10
2008,10,18,02,42,5.10
2008,10,18,02,43,5.10
2008,10,18,02,44,5.10
2008,10,18,02,45,5.00
2008,10,18,02,46,5.10
2008,10,18,02,47,5.10
2008,10,18,02,48,5.10
2008,10,18,02,49,5.10
2008,10,18,02,50,5.10
2008,10,18,02,51,5.20
2008,10,18,02,52,5.20
2008,10,18,02,53,5.30
2008,10,18,02,54,5.30
2008,10,18,02,55,5.30
2008,10,18,02,56,5.40
2008,10,18,02,57,5.40
2008,10,18,02,58,5.50
2008,10,18,02,59,5.50
2008,10,18,03,00,5.50
2008,10,18,03,01,5.50
2008,10,18,03,02,5.50
2008,10,18,03,03,5.50
2008,10,18,03,04,5.50
2008,10,18,03,05,5.40
2008,10,18,03,06,5.30
2008,10,18,03,07,5.20
2008,10,18,03,08,5.10
2008,10,18,03,09,5.00
2008,10,18,03,10,4.90
2008,10,18,03,11,4.80
2008,10,18,03,12,4.70
2008,10,18,03,13,4.60
2008,10,18,03,14,4.50
2008,10,18,03,15,4.60
2008,10,18,03,16,4.70
2008,10,18,03,17,4.80
2008,10,18,03,18,4.90
2008,10,18,03,19,4.90
2008,10,18,03,20,5.10
2008,10,18,03,21,5.10
2008,10,18,03,22,5.20
2008,10,18,03,23,5.20
2008,10,18,03,24,5.30
2008,10,18,03,25,5.30
2008,10,18,03,26,5.20
2008,10,18,03,27,5.10
2008,10,18,03,28,5.00
2008,10,18,03,29,4.80
2008,10,18,03,30,4.70
2008,10,18,03,31,4.50
2008,10,18,03,32,4.40
2008,10,18,03,33,4.40
2008,10,18,03,34,4.30
2008,10,18,03,35,4.30
2008,10,18,03,36,4.40
2008,10,18,03,37,4.50
2008,10,18,03,38,4.70
2008,10,18,03,39,4.80
2008,10,18,03,40,4.90
2008,10,18,03,41,4.90
2008,10,18,03,42,5.10
2008,10,18,03,43,5.10
2008,10,18,03,44,5.10
2008,10,18,03,45,5.10
2008,10,18,03,46,5.10
2008,10,18,03,47,5.10
2008,10,18,03,48,4.90
2008,10,18,03,49,4.90
2008,10,18,03,50,5.00
2008,10,18,03,51,5.10
2008,10,18,03,52,5.10
2008,10,18,03,53,5.10
2008,10,18,03,54,5.10
2008,10,18,03,55,5.20
2008,10,18,03,56,5.20
2008,10,18,03,57,5.20
2008,10,18,03,58,5.20
2008,10,18,03,59,5.10
2008,10,18,04,00,5.00
2008,10,18,04,01,4.80
2008,10,18,04,02,4.70
2008,10,18,04,03,4.70
2008,10,18,04,04,4.70
2008,10,18,04,05,4.70
2008,10,18,04,06,4.80
2008,10,18,04,07,4.90
2008,10,18,04,08,4.90
2008,10,18,04,09,5.00
2008,10,18,04,10,5.10
2008,10,18,04,11,5.10
2008,10,18,04,12,5.10
2008,10,18,04,13,5.10
2008,10,18,04,14,5.10
2008,10,18,04,15,5.10
2008,10,18,04,16,5.10
2008,10,18,04,17,5.10
2008,10,18,04,18,5.10
2008,10,18,04,19,5.10
2008,10,18,04,20,5.10
2008,10,18,04,21,5.10
2008,10,18,04,22,5.10
2008,10,18,04,23,5.10
2008,10,18,04,24,5.10
2008,10,18,04,25,5.10
2008,10,18,04,26,5.10
2008,10,18,04,27,5.10
2008,10,18,04,28,5.00
2008,10,18,04,29,4.90
2008,10,18,04,30,4.70
2008,10,18,04,31,4.60
2008,10,18,04,32,4.50
2008,10,18,04,33,4.40
2008,10,18,04,34,4.30
2008,10,18,04,35,4.20
2008,10,18,04,36,4.20
2008,10,18,04,37,4.20
2008,10,18,04,38,4.10
2008,10,18,04,39,4.00
2008,10,18,04,40,4.00
2008,10,18,04,41,4.00
2008,10,18,04,42,4.00
2008,10,18,04,43,3.90
2008,10,18,04,44,4.00
2008,10,18,04,45,3.90
2008,10,18,04,46,3.90
2008,10,18,04,47,3.90
2008,10,18,04,48,3.90
2008,10,18,04,49,3.90
2008,10,18,04,50,3.90
2008,10,18,04,51,4.00
2008,10,18,04,52,4.00
2008,10,18,04,53,4.00
2008,10,18,04,54,4.10
2008,10,18,04,55,4.10
2008,10,18,04,56,4.20
2008,10,18,04,57,4.20
2008,10,18,04,58,4.20
2008,10,18,04,59,4.20
2008,10,18,05,00,4.20
2008,10,18,05,01,4.20
2008,10,18,05,02,4.20
2008,10,18,05,03,4.20
2008,10,18,05,04,4.30
2008,10,18,05,05,4.30
2008,10,18,05,06,4.40
2008,10,18,05,07,4.50
2008,10,18,05,08,4.60
2008,10,18,05,09,4.60
2008,10,18,05,10,4.70
2008,10,18,05,11,4.70
2008,10,18,05,12,4.60
2008,10,18,05,13,4.60
2008,10,18,05,14,4.50
2008,10,18,05,15,4.40
2008,10,18,05,16,4.30
2008,10,18,05,17,4.20
2008,10,18,05,18,4.20
2008,10,18,05,19,4.20
2008,10,18,05,20,4.10
2008,10,18,05,21,4.20
2008,10,18,05,22,4.20
2008,10,18,05,23,4.20
2008,10,18,05,24,4.20
2008,10,18,05,25,4.20
2008,10,18,05,26,4.20
2008,10,18,05,27,4.20
2008,10,18,05,28,4.20
2008,10,18,05,29,4.20
2008,10,18,05,30,4.10
2008,10,18,05,31,4.10
2008,10,18,05,32,4.10
2008,10,18,05,33,4.20
2008,10,18,05,34,4.20
2008,10,18,05,35,4.20
2008,10,18,05,36,4.20
2008,10,18,05,37,4.20
2008,10,18,05,38,4.20
2008,10,18,05,39,4.10
2008,10,18,05,40,4.10
2008,10,18,05,41,4.00
2008,10,18,05,42,4.00
2008,10,18,05,43,4.00
2008,10,18,05,44,3.90
2008,10,18,05,45,3.90
2008,10,18,05,46,3.90
2008,10,18,05,47,3.90
2008,10,18,05,48,3.90
2008,10,18,05,49,3.80
2008,10,18,05,50,3.80
2008,10,18,05,51,3.80
2008,10,18,05,52,3.80
2008,10,18,05,53,3.70
2008,10,18,05,54,3.70
2008,10,18,05,55,3.60
2008,10,18,05,56,3.60
2008,10,18,05,57,3.60
2008,10,18,05,58,3.60
2008,10,18,05,59,3.60
2008,10,18,06,00,3.50
2008,10,18,06,01,3.50
2008,10,18,06,02,3.50
2008,10,18,06,03,3.50
2008,10,18,06,04,3.60
2008,10,18,06,05,3.60
2008,10,18,06,06,3.60
2008,10,18,06,07,3.60
2008,10,18,06,08,3.60
2008,10,18,06,09,3.60
2008,10,18,06,10,3.60
2008,10,18,06,11,3.50
2008,10,18,06,12,3.50
2008,10,18,06,13,3.40
2008,10,18,06,14,3.30
2008,10,18,06,15,3.30
2008,10,18,06,16,3.20
2008,10,18,06,17,3.20
2008,10,18,06,18,3.20
2008,10,18,06,19,3.20
2008,10,18,06,20,3.20
2008,10,18,06,21,3.20
2008,10,18,06,22,3.20
2008,10,18,06,23,3.20
2008,10,18,06,24,3.20
2008,10,18,06,25,3.20
2008,10,18,06,26,3.20
2008,10,18,06,27,3.30
2008,10,18,06,28,3.30
2008,10,18,06,29,3.30
2008,10,18,06,30,3.30
2008,10,18,06,31,3.30
2008,10,18,06,32,3.30
2008,10,18,06,33,3.30
2008,10,18,06,34,3.30
2008,10,18,06,35,3.30
2008,10,18,06,36,3.20
2008,10,18,06,37,3.20
2008,10,18,06,38,3.20
2008,10,18,06,39,3.10
2008,10,18,06,40,3.10
2008,10,18,06,41,3.10
2008,10,18,06,42,3.10
2008,10,18,06,43,3.00
2008,10,18,06,44,2.90
2008,10,18,06,45,2.90
2008,10,18,06,46,2.90
2008,10,18,06,47,2.90
2008,10,18,06,48,2.90
2008,10,18,06,49,3.00
2008,10,18,06,50,3.10
2008,10,18,06,51,3.10
2008,10,18,06,52,3.10
2008,10,18,06,53,3.10
2008,10,18,06,54,3.10
2008,10,18,06,55,3.10
2008,10,18,06,56,3.10
2008,10,18,06,57,3.10
2008,10,18,06,58,3.10
2008,10,18,06,59,3.10
2008,10,18,07,00,3.00
2008,10,18,07,01,2.90
2008,10,18,07,02,2.80
2008,10,18,07,03,2.60
2008,10,18,07,04,2.50
2008,10,18,07,05,2.40
2008,10,18,07,06,2.40
2008,10,18,07,07,2.30
2008,10,18,07,08,2.30
2008,10,18,07,09,2.30
2008,10,18,07,10,2.20
2008,10,18,07,11,2.20
2008,10,18,07,12,2.20
2008,10,18,07,13,2.20
2008,10,18,07,14,2.20
2008,10,18,07,15,2.20
2008,10,18,07,16,2.20
2008,10,18,07,17,2.30
2008,10,18,07,18,2.30
2008,10,18,07,19,2.30
2008,10,18,07,20,2.40
2008,10,18,07,21,2.50
2008,10,18,07,22,2.60
2008,10,18,07,23,2.60
2008,10,18,07,24,2.60
2008,10,18,07,25,2.50
2008,10,18,07,26,2.40
2008,10,18,07,27,2.20
2008,10,18,07,28,2.20
2008,10,18,07,29,2.10
2008,10,18,07,30,2.10
2008,10,18,07,31,2.00
2008,10,18,07,32,1.90
2008,10,18,07,33,1.90
2008,10,18,07,34,1.80
2008,10,18,07,35,1.80
2008,10,18,07,36,1.80
2008,10,18,07,37,1.90
2008,10,18,07,38,1.90
2008,10,18,07,39,2.00
2008,10,18,07,40,2.10
2008,10,18,07,41,2.20
2008,10,18,07,42,2.20
2008,10,18,07,43,2.30
2008,10,18,07,44,2.30
2008,10,18,07,45,2.40
2008,10,18,07,46,2.40
2008,10,18,07,47,2.50
2008,10,18,07,48,2.50
2008,10,18,07,49,2.60
2008,10,18,07,50,2.60
2008,10,18,07,51,2.70
2008,10,18,07,52,2.70
2008,10,18,07,53,2.60
2008,10,18,07,54,2.50
2008,10,18,07,55,2.50
2008,10,18,07,56,2.50
2008,10,18,07,57,2.50
2008,10,18,07,58,2.50
2008,10,18,07,59,2.50
2008,10,18,08,00,2.50
2008,10,18,08,01,2.50
2008,10,18,08,02,2.50
2008,10,18,08,03,2.60
2008,10,18,08,04,2.60
2008,10,18,08,05,2.50
2008,10,18,08,06,2.50
2008,10,18,08,07,2.50
2008,10,18,08,08,2.50
2008,10,18,08,09,2.50
2008,10,18,08,10,2.50
2008,10,18,08,11,2.50
2008,10,18,08,12,2.60
2008,10,18,08,13,2.70
2008,10,18,08,14,2.70
2008,10,18,08,15,2.80
2008,10,18,08,16,2.80
2008,10,18,08,17,2.80
2008,10,18,08,18,2.70
2008,10,18,08,19,2.70
2008,10,18,08,20,2.70
2008,10,18,08,21,2.70
2008,10,18,08,22,2.60
2008,10,18,08,23,2.60
2008,10,18,08,24,2.50
2008,10,18,08,25,2.50
2008,10,18,08,26,2.50
2008,10,18,08,27,2.50
2008,10,18,08,28,2.50
2008,10,18,08,29,2.60
2008,10,18,08,30,2.70
2008,10,18,08,31,2.70
2008,10,18,08,32,2.80
2008,10,18,08,33,2.90
2008,10,18,08,34,3.00
2008,10,18,08,35,3.10
2008,10,18,08,36,3.10
2008,10,18,08,37,3.10
2008,10,18,08,38,3.10
2008,10,18,08,39,3.10
2008,10,18,08,40,3.10
2008,10,18,08,41,3.10
2008,10,18,08,42,3.10
2008,10,18,08,43,3.10
2008,10,18,08,44,3.10
2008,10,18,08,45,3.10
2008,10,18,08,46,3.20
2008,10,18,08,47,3.20
2008,10,18,08,48,3.10
2008,10,18,08,49,3.10
2008,10,18,08,50,3.10
2008,10,18,08,51,3.10
2008,10,18,08,52,3.10
2008,10,18,08,53,3.10
2008,10,18,08,54,3.10
2008,10,18,08,55,3.20
2008,10,18,08,56,3.20
2008,10,18,08,57,3.20
2008,10,18,08,58,3.30
2008,10,18,08,59,3.30
2008,10,18,09,00,3.40
2008,10,18,09,01,3.50
2008,10,18,09,02,3.50
2008,10,18,09,03,3.60
2008,10,18,09,04,3.80
2008,10,18,09,05,3.90
2008,10,18,09,06,4.00
2008,10,18,09,07,4.10
2008,10,18,09,08,4.20
2008,10,18,09,09,4.30
2008,10,18,09,10,4.40
2008,10,18,09,11,4.50
2008,10,18,09,12,4.70
2008,10,18,09,13,4.80
2008,10,18,09,14,4.90
2008,10,18,09,15,5.00
2008,10,18,09,16,5.10
2008,10,18,09,17,5.10
2008,10,18,09,18,5.20
2008,10,18,09,19,5.30
2008,10,18,09,20,5.30
2008,10,18,09,21,5.40
2008,10,18,09,22,5.50
2008,10,18,09,23,5.60
2008,10,18,09,24,5.70
2008,10,18,09,25,5.70
2008,10,18,09,26,5.80
2008,10,18,09,27,5.90
2008,10,18,09,28,6.00
2008,10,18,09,29,6.10
2008,10,18,09,30,6.20
2008,10,18,09,31,6.20
2008,10,18,09,32,6.30
2008,10,18,09,33,6.40
2008,10,18,09,34,6.50
2008,10,18,09,35,6.60
2008,10,18,09,36,6.60
2008,10,18,09,37,6.70
2008,10,18,09,38,6.80
2008,10,18,09,39,6.90
2008,10,18,09,40,7.00
2008,10,18,09,41,7.10
2008,10,18,09,42,7.20
2008,10,18,09,43,7.30
2008,10,18,09,44,7.40
2008,10,18,09,45,7.50
2008,10,18,09,46,7.60
2008,10,18,09,47,7.70
2008,10,18,09,48,7.80
2008,10,18,09,49,7.90
2008,10,18,09,50,8.00
2008,10,18,09,51,8.20
2008,10,18,09,52,8.30
2008,10,18,09,53,8.40
2008,10,18,09,54,8.50
2008,10,18,09,55,8.60
2008,10,18,09,56,8.70
2008,10,18,09,57,8.70
2008,10,18,09,58,8.80
2008,10,18,09,59,8.80
2008,10,18,10,00,8.80
2008,10,18,10,01,8.80
2008,10,18,10,02,8.90
2008,10,18,10,03,8.90
2008,10,18,10,04,8.90
2008,10,18,10,05,8.80
2008,10,18,10,06,8.80
2008,10,18,10,07,8.80
2008,10,18,10,08,8.80
2008,10,18,10,09,8.80
2008,10,18,10,10,8.90
2008,10,18,10,11,8.90
2008,10,18,10,12,8.90
2008,10,18,10,13,9.00
2008,10,18,10,14,9.10
2008,10,18,10,15,9.10
2008,10,18,10,16,9.20
2008,10,18,10,17,9.20
2008,10,18,10,18,9.20
2008,10,18,10,19,9.20
2008,10,18,10,20,9.30
2008,10,18,10,21,9.40
2008,10,18,10,22,9.40
2008,10,18,10,23,9.40
2008,10,18,10,24,9.50
2008,10,18,10,25,9.50
2008,10,18,10,26,9.50
2008,10,18,10,27,9.50
2008,10,18,10,28,9.50
2008,10,18,10,29,9.60
2008,10,18,10,30,9.60
2008,10,18,10,31,9.70
2008,10,18,10,32,9.70
2008,10,18,10,33,9.70
2008,10,18,10,34,9.70
2008,10,18,10,35,9.70
2008,10,18,10,36,9.80
2008,10,18,10,37,9.80
2008,10,18,10,38,9.90
2008,10,18,10,39,9.90
2008,10,18,10,40,9.90
2008,10,18,10,41,10.00
2008,10,18,10,42,10.10
2008,10,18,10,43,10.10
2008,10,18,10,44,10.10
2008,10,18,10,45,10.10
2008,10,18,10,46,10.20
2008,10,18,10,47,10.20
2008,10,18,10,48,10.20
2008,10,18,10,49,10.20
2008,10,18,10,50,10.20
2008,10,18,10,51,10.20
2008,10,18,10,52,10.20
2008,10,18,10,53,10.20
2008,10,18,10,54,10.20
2008,10,18,10,55,10.10
2008,10,18,10,56,10.10
2008,10,18,10,57,10.10
2008,10,18,10,58,10.10
2008,10,18,10,59,10.10
2008,10,18,11,00,10.20
2008,10,18,11,01,10.20
2008,10,18,11,02,10.20
2008,10,18,11,03,10.20
2008,10,18,11,04,10.20
2008,10,18,11,05,10.20
2008,10,18,11,06,10.30
2008,10,18,11,07,10.30
2008,10,18,11,08,10.30
2008,10,18,11,09,10.30
2008,10,18,11,10,10.30
2008,10,18,11,11,10.30
2008,10,18,11,12,10.30
2008,10,18,11,13,10.30
2008,10,18,11,14,10.30
2008,10,18,11,15,10.30
2008,10,18,11,16,10.40
2008,10,18,11,17,10.40
2008,10,18,11,18,10.40
2008,10,18,11,19,10.40
2008,10,18,11,20,10.40
2008,10,18,11,21,10.40
2008,10,18,11,22,10.50
2008,10,18,11,23,10.60
2008,10,18,11,24,10.60
2008,10,18,11,25,10.60
2008,10,18,11,26,10.60
2008,10,18,11,27,10.60
2008,10,18,11,28,10.60
2008,10,18,11,29,10.60
2008,10,18,11,30,10.60
2008,10,18,11,31,10.60
2008,10,18,11,32,10.60
2008,10,18,11,33,10.60
2008,10,18,11,34,10.60
2008,10,18,11,35,10.60
2008,10,18,11,36,10.60
2008,10,18,11,37,10.60
2008,10,18,11,38,10.60
2008,10,18,11,39,10.60
2008,10,18,11,40,10.60
2008,10,18,11,41,10.60
2008,10,18,11,42,10.50
2008,10,18,11,43,10.40
2008,10,18,11,44,10.40
2008,10,18,11,45,10.40
2008,10,18,11,46,10.50
2008,10,18,11,47,10.40
2008,10,18,11,48,10.50
2008,10,18,11,49,10.60
2008,10,18,11,50,10.50
2008,10,18,11,51,10.40
2008,10,18,11,52,10.40
2008,10,18,11,53,10.40
2008,10,18,11,54,10.50
2008,10,18,11,55,10.60
2008,10,18,11,56,10.60
2008,10,18,11,57,10.60
2008,10,18,11,58,10.70
2008,10,18,11,59,10.70
2008,10,18,12,00,10.70
2008,10,18,12,01,10.70
2008,10,18,12,02,10.70
2008,10,18,12,03,10.70
2008,10,18,12,04,10.80
2008,10,18,12,05,10.80
2008,10,18,12,06,10.70
2008,10,18,12,07,10.70
2008,10,18,12,08,10.70
2008,10,18,12,09,10.70
2008,10,18,12,10,10.70
2008,10,18,12,11,10.70
2008,10,18,12,12,10.70
2008,10,18,12,13,10.70
2008,10,18,12,14,10.80
2008,10,18,12,15,10.80
2008,10,18,12,16,10.90
2008,10,18,12,17,10.90
2008,10,18,12,18,11.00
2008,10,18,12,19,11.10
2008,10,18,12,20,11.20
2008,10,18,12,21,11.30
2008,10,18,12,22,11.40
2008,10,18,12,23,11.40
2008,10,18,12,24,11.40
2008,10,18,12,25,11.40
2008,10,18,12,26,11.40
2008,10,18,12,27,11.40
2008,10,18,12,28,11.40
2008,10,18,12,29,11.30
2008,10,18,12,30,11.30
2008,10,18,12,31,11.30
2008,10,18,12,32,11.30
2008,10,18,12,33,11.20
2008,10,18,12,34,11.20
2008,10,18,12,35,11.20
2008,10,18,12,36,11.20
2008,10,18,12,37,11.20
2008,10,18,12,38,11.20
2008,10,18,12,39,11.10
2008,10,18,12,40,11.10
2008,10,18,12,41,11.10
2008,10,18,12,42,11.00
2008,10,18,12,43,10.90
2008,10,18,12,44,10.90
2008,10,18,12,45,10.90
2008,10,18,12,46,10.90
2008,10,18,12,47,10.90
2008,10,18,12,48,10.90
2008,10,18,12,49,10.90
2008,10,18,12,50,10.90
2008,10,18,12,51,10.90
2008,10,18,12,52,10.90
2008,10,18,12,53,10.90
2008,10,18,12,54,10.90
2008,10,18,12,55,10.90
2008,10,18,12,56,10.90
2008,10,18,12,57,11.00
2008,10,18,12,58,11.10
2008,10,18,12,59,11.10
2008,10,18,13,00,11.10
2008,10,18,13,01,11.10
2008,10,18,13,02,11.20
2008,10,18,13,03,11.10
2008,10,18,13,04,11.10
2008,10,18,13,05,11.20
2008,10,18,13,06,11.20
2008,10,18,13,07,11.20
2008,10,18,13,08,11.20
2008,10,18,13,09,11.20
2008,10,18,13,10,11.30
2008,10,18,13,11,11.30
2008,10,18,13,12,11.30
2008,10,18,13,13,11.30
2008,10,18,13,14,11.30
2008,10,18,13,15,11.20
2008,10,18,13,16,11.10
2008,10,18,13,17,11.10
2008,10,18,13,18,11.00
2008,10,18,13,19,10.90
2008,10,18,13,20,10.90
2008,10,18,13,21,10.90
2008,10,18,13,22,10.90
2008,10,18,13,23,10.90
2008,10,18,13,24,10.90
2008,10,18,13,25,11.00
2008,10,18,13,26,11.10
2008,10,18,13,27,11.10
2008,10,18,13,28,11.10
2008,10,18,13,29,11.10
2008,10,18,13,30,11.10
2008,10,18,13,31,11.10
2008,10,18,13,32,11.10
2008,10,18,13,33,11.10
2008,10,18,13,34,11.10
2008,10,18,13,35,11.10
2008,10,18,13,36,11.10
2008,10,18,13,37,11.10
2008,10,18,13,38,11.20
2008,10,18,13,39,11.20
2008,10,18,13,40,11.20
2008,10,18,13,41,11.20
2008,10,18,13,42,11.20
2008,10,18,13,43,11.20
2008,10,18,13,44,11.20
2008,10,18,13,45,11.20
2008,10,18,13,46,11.20
2008,10,18,13,47,11.20
2008,10,18,13,48,11.20
2008,10,18,13,49,11.10
2008,10,18,13,50,11.10
2008,10,18,13,51,11.10
2008,10,18,13,52,11.20
2008,10,18,13,53,11.20
2008,10,18,13,54,11.30
2008,10,18,13,55,11.20
2008,10,18,13,56,11.20
2008,10,18,13,57,11.10
2008,10,18,13,58,11.10
2008,10,18,13,59,11.10
2008,10,18,14,00,11.10
2008,10,18,14,01,11.10
2008,10,18,14,02,11.10
2008,10,18,14,03,11.20
2008,10,18,14,04,11.20
2008,10,18,14,05,11.20
2008,10,18,14,06,11.20
2008,10,18,14,07,11.10
2008,10,18,14,08,11.10
2008,10,18,14,09,11.10
2008,10,18,14,10,11.10
2008,10,18,14,11,11.10
2008,10,18,14,12,11.10
2008,10,18,14,13,11.20
2008,10,18,14,14,11.20
2008,10,18,14,15,11.30
2008,10,18,14,16,11.30
2008,10,18,14,17,11.40
2008,10,18,14,18,11.50
2008,10,18,14,19,11.60
2008,10,18,14,20,11.60
2008,10,18,14,21,11.70
2008,10,18,14,22,11.80
2008,10,18,14,23,11.80
2008,10,18,14,24,11.80
2008,10,18,14,25,11.80
2008,10,18,14,26,11.80
2008,10,18,14,27,11.70
2008,10,18,14,28,11.70
2008,10,18,14,29,11.80
2008,10,18,14,30,11.80
2008,10,18,14,31,11.90
2008,10,18,14,32,11.90
2008,10,18,14,33,12.00
2008,10,18,14,34,12.00
2008,10,18,14,35,12.00
2008,10,18,14,36,11.90
2008,10,18,14,37,11.90
2008,10,18,14,38,11.90
2008,10,18,14,39,11.90
2008,10,18,14,40,11.80
2008,10,18,14,41,11.80
2008,10,18,14,42,11.80
2008,10,18,14,43,11.80
2008,10,18,14,44,11.70
2008,10,18,14,45,11.70
2008,10,18,14,46,11.70
2008,10,18,14,47,11.70
2008,10,18,14,48,11.70
2008,10,18,14,49,11.70
2008,10,18,14,50,11.70
2008,10,18,14,51,11.80
2008,10,18,14,52,11.80
2008,10,18,14,53,11.80
2008,10,18,14,54,11.80
2008,10,18,14,55,11.80
2008,10,18,14,56,11.70
2008,10,18,14,57,11.80
2008,10,18,14,58,11.80
2008,10,18,14,59,11.80
2008,10,18,15,00,11.80
2008,10,18,15,01,11.80
2008,10,18,15,02,11.80
2008,10,18,15,03,11.80
2008,10,18,15,04,11.80
2008,10,18,15,05,11.80
2008,10,18,15,06,11.80
2008,10,18,15,07,11.80
2008,10,18,15,08,11.90
2008,10,18,15,09,12.00
2008,10,18,15,10,12.10
2008,10,18,15,11,12.20
2008,10,18,15,12,12.20
2008,10,18,15,13,12.20
2008,10,18,15,14,12.20
2008,10,18,15,15,12.20
2008,10,18,15,16,12.10
2008,10,18,15,17,12.10
2008,10,18,15,18,12.10
2008,10,18,15,19,12.10
2008,10,18,15,20,12.10
2008,10,18,15,21,12.10
2008,10,18,15,22,12.10
2008,10,18,15,23,12.00
2008,10,18,15,24,12.00
2008,10,18,15,25,12.00
2008,10,18,15,26,12.00
2008,10,18,15,27,12.00
2008,10,18,15,28,12.00
2008,10,18,15,29,12.10
2008,10,18,15,30,12.10
2008,10,18,15,31,12.10
2008,10,18,15,32,12.10
2008,10,18,15,33,12.10
2008,10,18,15,34,12.10
2008,10,18,15,35,12.00
2008,10,18,15,36,12.00
2008,10,18,15,37,12.00
2008,10,18,15,38,12.00
2008,10,18,15,39,12.00
2008,10,18,15,40,11.90
2008,10,18,15,41,11.80
2008,10,18,15,42,11.90
2008,10,18,15,43,11.90
2008,10,18,15,44,11.90
2008,10,18,15,45,11.90
2008,10,18,15,46,11.90
2008,10,18,15,47,11.90
2008,10,18,15,48,11.90
2008,10,18,15,49,11.90
2008,10,18,15,50,12.00
2008,10,18,15,51,12.00
2008,10,18,15,52,12.00
2008,10,18,15,53,12.10
2008,10,18,15,54,12.10
2008,10,18,15,55,12.10
2008,10,18,15,56,12.10
2008,10,18,15,57,12.10
2008,10,18,15,58,12.00
2008,10,18,15,59,12.00
2008,10,18,16,00,12.00
2008,10,18,16,01,11.90
2008,10,18,16,02,11.90
2008,10,18,16,03,11.90
2008,10,18,16,04,11.80
2008,10,18,16,05,11.80
2008,10,18,16,06,11.70
2008,10,18,16,07,11.70
2008,10,18,16,08,11.70
2008,10,18,16,09,11.80
2008,10,18,16,10,11.80
2008,10,18,16,11,11.80
2008,10,18,16,12,11.80
2008,10,18,16,13,11.70
2008,10,18,16,14,11.70
2008,10,18,16,15,11.70
2008,10,18,16,16,11.70
2008,10,18,16,17,11.70
2008,10,18,16,18,11.70
2008,10,18,16,19,11.70
2008,10,18,16,20,11.60
2008,10,18,16,21,11.60
2008,10,18,16,22,11.60
2008,10,18,16,23,11.50
2008,10,18,16,24,11.40
2008,10,18,16,25,11.40
2008,10,18,16,26,11.40
2008,10,18,16,27,11.40
2008,10,18,16,28,11.30
2008,10,18,16,29,11.30
2008,10,18,16,30,11.30
2008,10,18,16,31,11.30
2008,10,18,16,32,11.20
2008,10,18,16,33,11.20
2008,10,18,16,34,11.20
2008,10,18,16,35,11.20
2008,10,18,16,36,11.20
2008,10,18,16,37,11.20
2008,10,18,16,38,11.20
2008,10,18,16,39,11.20
2008,10,18,16,40,11.20
2008,10,18,16,41,11.20
2008,10,18,16,42,11.20
2008,10,18,16,43,11.20
2008,10,18,16,44,11.10
2008,10,18,16,45,11.10
2008,10,18,16,46,11.10
2008,10,18,16,47,11.10
2008,10,18,16,48,11.10
2008,10,18,16,49,11.10
2008,10,18,16,50,11.10
2008,10,18,16,51,11.10
2008,10,18,16,52,11.10
2008,10,18,16,53,11.10
2008,10,18,16,54,11.10
2008,10,18,16,55,11.10
2008,10,18,16,56,11.10
2008,10,18,16,57,11.10
2008,10,18,16,58,11.10
2008,10,18,16,59,11.10
2008,10,18,17,00,11.10
2008,10,18,17,01,11.10
2008,10,18,17,02,11.10
2008,10,18,17,03,11.00
2008,10,18,17,04,10.90
2008,10,18,17,05,10.90
2008,10,18,17,06,10.90
2008,10,18,17,07,10.90
2008,10,18,17,08,10.90
2008,10,18,17,09,10.90
2008,10,18,17,10,10.90
2008,10,18,17,11,10.90
2008,10,18,17,12,10.90
2008,10,18,17,13,10.90
2008,10,18,17,14,10.90
2008,10,18,17,15,10.90
2008,10,18,17,16,10.90
2008,10,18,17,17,10.90
2008,10,18,17,18,10.80
2008,10,18,17,19,10.80
2008,10,18,17,20,10.80
2008,10,18,17,21,10.80
2008,10,18,17,22,10.80
2008,10,18,17,23,10.80
2008,10,18,17,24,10.80
2008,10,18,17,25,10.70
2008,10,18,17,26,10.70
2008,10,18,17,27,10.70
2008,10,18,17,28,10.70
2008,10,18,17,29,10.70
2008,10,18,17,30,10.70
2008,10,18,17,31,10.70
2008,10,18,17,32,10.70
2008,10,18,17,33,10.60
2008,10,18,17,34,10.60
2008,10,18,17,35,10.60
2008,10,18,17,36,10.60
2008,10,18,17,37,10.50
2008,10,18,17,38,10.40
2008,10,18,17,39,10.40
2008,10,18,17,40,10.30
2008,10,18,17,41,10.30
2008,10,18,17,42,10.20
2008,10,18,17,43,10.10
2008,10,18,17,44,10.10
2008,10,18,17,45,10.10
2008,10,18,17,46,10.00
2008,10,18,17,47,9.90